| time (UTC) | temp F | wind direction | speed MPH | gust MPH | rain 1hr in | rain 24hr in | rain mn in | humidity % | barometer mb |
| 20260507092503 | 77 | 43 | 4.0 | 11.0 | 0.00 | 0.00 | 0.00 | 43 | 1017.2 |
| 20260507092003 | 77 | 15 | 4.0 | 11.0 | 0.00 | 0.00 | 0.00 | 44 | 1016.8 |
| 20260507091504 | 76 | 12 | 3.0 | 8.0 | 0.00 | 0.00 | 0.00 | 43 | 1017.3 |
| 20260507091004 | 75 | 11 | 4.0 | 9.0 | 0.00 | 0.00 | 0.00 | 44 | 1017.1 |
| 20260507090504 | 75 | 4 | 4.0 | 9.0 | 0.00 | 0.00 | 0.00 | 45 | 1017.1 |
| 20260507090006 | 75 | 9 | 4.0 | 9.0 | 0.00 | 0.00 | 0.00 | 46 | 1017.1 |
| 20260507085504 | 75 | 21 | 4.0 | 8.0 | 0.00 | 0.00 | 0.00 | 45 | 1017.0 |
| 20260507085003 | 75 | 31 | 4.0 | 8.0 | 0.00 | 0.00 | 0.00 | 42 | 1017.0 |
| 20260507084004 | 75 | 32 | 3.0 | 8.0 | 0.00 | 0.00 | 0.00 | 43 | 1017.3 |
| 20260507083005 | 75 | 36 | 5.0 | 11.0 | 0.00 | 0.00 | 0.00 | 42 | 1017.3 |
| 20260507082505 | 75 | 63 | 4.0 | 10.0 | 0.00 | 0.00 | 0.00 | 39 | 1017.2 |
| 20260507082004 | 75 | 59 | 4.0 | 10.0 | 0.00 | 0.00 | 0.00 | 37 | 1016.9 |
| 20260507081004 | 75 | 64 | 4.0 | 7.0 | 0.00 | 0.00 | 0.00 | 36 | 1017.2 |
| 20260507080504 | 75 | 31 | 3.0 | 7.0 | 0.00 | 0.00 | 0.00 | 35 | 1017.1 |
| 20260507080005 | 75 | 32 | 3.0 | 7.0 | 0.00 | 0.00 | 0.00 | 36 | 1017.2 |
| 20260507075503 | 75 | 42 | 4.0 | 9.0 | 0.00 | 0.00 | 0.00 | 36 | 1017.1 |
| 20260507074504 | 75 | 24 | 4.0 | 9.0 | 0.00 | 0.00 | 0.00 | 40 | 1017.1 |
| 20260507074004 | 75 | 25 | 3.0 | 8.0 | 0.00 | 0.00 | 0.00 | 42 | 1017.1 |
| 20260507073504 | 75 | 32 | 4.0 | 8.0 | 0.00 | 0.00 | 0.00 | 43 | 1016.9 |
| 20260507073004 | 75 | 22 | 4.0 | 8.0 | 0.00 | 0.00 | 0.00 | 44 | 1016.8 |
| 20260507072503 | 75 | 47 | 3.0 | 7.0 | 0.00 | 0.00 | 0.00 | 44 | 1016.7 |
| 20260507072004 | 74 | 86 | 3.0 | 7.0 | 0.00 | 0.00 | 0.00 | 42 | 1017.0 |
| 20260507071505 | 74 | 92 | 3.0 | 7.0 | 0.00 | 0.00 | 0.00 | 42 | 1016.8 |
| 20260507071004 | 74 | 93 | 3.0 | 6.0 | 0.00 | 0.00 | 0.00 | 41 | 1017.0 |
| 20260507070503 | 74 | 111 | 2.0 | 6.0 | 0.00 | 0.00 | 0.00 | 40 | 1016.8 |
| 20260507070009 | 74 | 126 | 2.0 | 6.0 | 0.00 | 0.00 | 0.00 | 41 | 1016.8 |
| 20260507065503 | 74 | 118 | 2.0 | 5.0 | 0.00 | 0.00 | 0.00 | 39 | 1017.1 |
| 20260507065004 | 73 | 96 | 2.0 | 6.0 | 0.00 | 0.00 | 0.00 | 38 | 1017.2 |
| 20260507064004 | 73 | 195 | 1.0 | 3.0 | 0.00 | 0.00 | 0.00 | 40 | 1017.1 |
| 20260507063504 | 72 | 209 | 1.0 | 4.0 | 0.00 | 0.00 | 0.00 | 42 | 1017.1 |
| 20260507062504 | 70 | 213 | 1.0 | 3.0 | 0.00 | 0.00 | 0.00 | 44 | 1017.1 |
| 20260507062004 | 69 | 190 | 1.0 | 3.0 | 0.00 | 0.00 | 0.00 | 44 | 1017.3 |
| 20260507061504 | 69 | 181 | 0.0 | 3.0 | 0.00 | 0.00 | 0.00 | 46 | 1017.1 |
| 20260507061004 | 68 | 191 | 0.0 | 3.0 | 0.00 | 0.00 | 0.00 | 48 | 1017.1 |
| 20260507060504 | 68 | 190 | 1.0 | 3.0 | 0.00 | 0.00 | 0.00 | 48 | 1017.1 |
| 20260507060004 | 67 | 181 | 0.0 | 4.0 | 0.00 | 0.00 | 0.00 | 49 | 1017.1 |
| 20260507055503 | 67 | 181 | 1.0 | 4.0 | 0.00 | 0.00 | 0.00 | 50 | 1017.2 |
| 20260507055003 | 67 | 189 | 1.0 | 4.0 | 0.00 | 0.00 | 0.00 | 52 | 1017.1 |
| 20260507054504 | 66 | 217 | 1.0 | 4.0 | 0.00 | 0.00 | 0.00 | 53 | 1017.0 |
| 20260507054004 | 66 | 289 | 1.0 | 4.0 | 0.00 | 0.00 | 0.00 | 55 | 1017.0 |
| 20260507053503 | 65 | 353 | 0.0 | 3.0 | 0.00 | 0.00 | 0.00 | 56 | 1017.1 |
| 20260507052504 | 64 | 94 | 0.0 | 2.0 | 0.00 | 0.00 | 0.00 | 59 | 1016.9 |
| 20260507052004 | 63 | 78 | 0.0 | 2.0 | 0.00 | 0.00 | 0.00 | 62 | 1017.0 |
| 20260507051504 | 62 | 114 | 0.0 | 2.0 | 0.00 | 0.00 | 0.00 | 62 | 1016.8 |
| 20260507051004 | 61 | 170 | 0.0 | 2.0 | 0.00 | 0.00 | 0.00 | 64 | 1016.9 |
| 20260507050504 | 60 | 202 | 0.0 | 4.0 | 0.00 | 0.00 | 0.00 | 64 | 1017.0 |
| 20260507050005 | 59 | 192 | 1.0 | 5.0 | 0.00 | 0.00 | 0.00 | 64 | 1017.0 |
| 20260507045504 | 59 | 185 | 3.0 | 6.0 | 0.00 | 0.00 | 0.00 | 65 | 1017.0 |
| 20260507044505 | 58 | 249 | 2.0 | 5.0 | 0.00 | 0.00 | 0.00 | 67 | 1016.7 |
| 20260507044004 | 58 | 236 | 1.0 | 4.0 | 0.00 | 0.00 | 0.00 | 69 | 1016.6 |
| 20260507043504 | 57 | 246 | 0.0 | 3.0 | 0.00 | 0.00 | 0.00 | 71 | 1016.7 |
| 20260507043004 | 56 | 314 | 0.0 | 2.0 | 0.00 | 0.00 | 0.00 | 72 | 1016.7 |
| 20260507042504 | 56 | 314 | 0.0 | 2.0 | 0.00 | 0.00 | 0.00 | 73 | 1016.7 |
| 20260507041505 | 55 | 191 | 0.0 | 4.0 | 0.00 | 0.00 | 0.00 | 73 | 1016.7 |
| 20260507040503 | 54 | 243 | 1.0 | 4.0 | 0.00 | 0.00 | 0.00 | 74 | 1016.7 |
| 20260507040004 | 54 | 225 | 2.0 | 5.0 | 0.00 | 0.00 | 0.00 | 74 | 1017.0 |
| 20260507035503 | 53 | 227 | 2.0 | 5.0 | 0.00 | 0.00 | 0.00 | 75 | 1016.6 |
| 20260507035004 | 53 | 227 | 2.0 | 4.0 | 0.00 | 0.00 | 0.00 | 75 | 1016.9 |
| 20260507034505 | 53 | 225 | 1.0 | 4.0 | 0.00 | 0.00 | 0.00 | 76 | 1016.8 |
| 20260507033503 | 52 | 225 | 0.0 | 3.0 | 0.00 | 0.00 | 0.00 | 76 | 1016.4 |
| 20260507033004 | 52 | 200 | 0.0 | 3.0 | 0.00 | 0.00 | 0.00 | 76 | 1016.7 |
| 20260507032503 | 52 | 202 | 0.0 | 3.0 | 0.00 | 0.00 | 0.00 | 76 | 1016.5 |
| 20260507031505 | 52 | 222 | 0.0 | 3.0 | 0.00 | 0.00 | 0.00 | 76 | 1016.3 |
| 20260507031004 | 51 | 224 | 0.0 | 3.0 | 0.00 | 0.00 | 0.00 | 75 | 1016.3 |
| 20260507030504 | 51 | 276 | 0.0 | 1.0 | 0.00 | 0.00 | 0.00 | 75 | 1016.2 |
| 20260507030004 | 51 | 0 | 0.0 | 0.0 | 0.00 | 0.00 | 0.00 | 74 | 1016.2 |
| 20260507025504 | 52 | 0 | 0.0 | 0.0 | 0.00 | 0.00 | 0.00 | 74 | 1016.2 |
| 20260507025004 | 52 | 324 | 0.0 | 2.0 | 0.00 | 0.00 | 0.00 | 73 | 1016.2 |
| 20260507024506 | 52 | 321 | 0.0 | 2.0 | 0.00 | 0.00 | 0.00 | 73 | 1016.1 |
| 20260507023505 | 52 | 314 | 0.0 | 3.0 | 0.00 | 0.00 | 0.00 | 71 | 1016.3 |
| 20260507023004 | 52 | 349 | 0.0 | 2.0 | 0.00 | 0.00 | 0.00 | 70 | 1016.3 |
| 20260507022503 | 53 | 23 | 0.0 | 1.0 | 0.00 | 0.00 | 0.00 | 70 | 1016.1 |
| 20260507022003 | 53 | 83 | 0.0 | 3.0 | 0.00 | 0.00 | 0.00 | 70 | 1016.2 |
| 20260507021505 | 53 | 90 | 0.0 | 3.0 | 0.00 | 0.00 | 0.00 | 69 | 1016.3 |
| 20260507021004 | 54 | 90 | 0.0 | 2.0 | 0.00 | 0.00 | 0.00 | 69 | 1016.1 |
| 20260507020503 | 54 | 99 | 0.0 | 2.0 | 0.00 | 0.00 | 0.00 | 69 | 1015.8 |
| 20260507020004 | 54 | 166 | 0.0 | 2.0 | 0.00 | 0.00 | 0.00 | 69 | 1015.9 |
| 20260507015504 | 54 | 186 | 0.0 | 3.0 | 0.00 | 0.00 | 0.00 | 69 | 1015.9 |
| 20260507015004 | 54 | 203 | 0.0 | 3.0 | 0.00 | 0.00 | 0.00 | 69 | 1015.8 |
| 20260507014504 | 54 | 222 | 1.0 | 4.0 | 0.00 | 0.00 | 0.00 | 69 | 1015.8 |
| 20260507014004 | 54 | 225 | 2.0 | 5.0 | 0.00 | 0.00 | 0.00 | 70 | 1015.9 |
| 20260507013503 | 54 | 225 | 3.0 | 5.0 | 0.00 | 0.00 | 0.00 | 70 | 1015.7 |
| 20260507012504 | 54 | 235 | 3.0 | 7.0 | 0.00 | 0.00 | 0.00 | 71 | 1015.6 |
| 20260507011505 | 54 | 255 | 3.0 | 6.0 | 0.00 | 0.00 | 0.00 | 73 | 1015.9 |
| 20260507011004 | 54 | 264 | 2.0 | 4.0 | 0.00 | 0.00 | 0.00 | 74 | 1015.7 |
| 20260507010504 | 54 | 235 | 3.0 | 5.0 | 0.00 | 0.00 | 0.00 | 74 | 1015.5 |
| 20260507010004 | 54 | 223 | 4.0 | 7.0 | 0.00 | 0.00 | 0.00 | 76 | 1015.6 |
| 20260507005503 | 54 | 225 | 4.0 | 7.0 | 0.00 | 0.00 | 0.00 | 77 | 1015.6 |
| 20260507005004 | 53 | 218 | 2.0 | 5.0 | 0.00 | 0.00 | 0.00 | 78 | 1015.5 |
| 20260507004504 | 53 | 204 | 0.0 | 4.0 | 0.00 | 0.00 | 0.00 | 77 | 1015.6 |
| 20260507004004 | 53 | 0 | 0.0 | 0.0 | 0.00 | 0.00 | 0.00 | 77 | 1015.5 |
| 20260507003504 | 53 | 0 | 0.0 | 0.0 | 0.00 | 0.00 | 0.00 | 77 | 1015.8 |
| 20260507003004 | 53 | 90 | 0.0 | 1.0 | 0.00 | 0.00 | 0.00 | 76 | 1015.6 |
| 20260507002504 | 53 | 90 | 0.0 | 2.0 | 0.00 | 0.00 | 0.00 | 76 | 1015.5 |
| 20260507002004 | 53 | 90 | 0.0 | 2.0 | 0.00 | 0.00 | 0.00 | 76 | 1015.4 |
| 20260507001504 | 53 | 0 | 0.0 | 0.0 | 0.00 | 0.00 | 0.00 | 75 | 1015.6 |
| 20260507001003 | 53 | 0 | 0.0 | 0.0 | 0.00 | 0.00 | 0.00 | 74 | 1015.5 |
| 20260507000503 | 54 | 0 | 0.0 | 0.0 | 0.00 | 0.00 | 0.00 | 74 | 1015.6 |
| 20260507000004 | 54 | 0 | 0.0 | 0.0 | 0.00 | 0.00 | 0.00 | 74 | 1015.6 |
| 20260506235504 | 54 | 0 | 0.0 | 0.0 | 0.00 | 0.00 | 0.00 | 74 | 1015.6 |
| 20260506235004 | 55 | 135 | 0.0 | 1.0 | 0.00 | 0.00 | 0.00 | 73 | 1015.7 |
| 20260506234003 | 55 | 93 | 1.0 | 3.0 | 0.00 | 0.00 | 0.00 | 73 | 1015.7 |
| 20260506233504 | 56 | 90 | 1.0 | 3.0 | 0.00 | 0.00 | 0.00 | 73 | 1015.9 |
| 20260506233005 | 56 | 84 | 0.0 | 2.0 | 0.00 | 0.00 | 0.00 | 73 | 1016.1 |
| 20260506231004 | 56 | 306 | 0.0 | 3.0 | 0.00 | 0.00 | 0.00 | 73 | 1016.2 |
| 20260506230504 | 56 | 270 | 1.0 | 4.0 | 0.00 | 0.00 | 0.00 | 73 | 1016.3 |
| 20260506225503 | 56 | 232 | 0.0 | 4.0 | 0.00 | 0.00 | 0.00 | 73 | 1016.3 |
| 20260506225003 | 56 | 225 | 0.0 | 4.0 | 0.00 | 0.00 | 0.00 | 73 | 1016.6 |
| 20260506224504 | 56 | 218 | 0.0 | 3.0 | 0.00 | 0.00 | 0.00 | 73 | 1016.5 |
| 20260506224004 | 56 | 212 | 0.0 | 3.0 | 0.00 | 0.00 | 0.00 | 73 | 1016.3 |
| 20260506223504 | 56 | 227 | 1.0 | 3.0 | 0.00 | 0.00 | 0.00 | 73 | 1016.5 |
| 20260506223005 | 56 | 229 | 1.0 | 4.0 | 0.00 | 0.00 | 0.00 | 74 | 1016.5 |
| 20260506222504 | 56 | 225 | 1.0 | 4.0 | 0.00 | 0.00 | 0.00 | 74 | 1016.2 |
| 20260506222004 | 56 | 225 | 1.0 | 4.0 | 0.00 | 0.00 | 0.00 | 74 | 1016.5 |
| 20260506221504 | 56 | 0 | 0.0 | 0.0 | 0.00 | 0.00 | 0.00 | 74 | 1016.2 |
| 20260506221004 | 57 | 0 | 0.0 | 0.0 | 0.00 | 0.00 | 0.00 | 74 | 1016.2 |
| 20260506220504 | 57 | 0 | 0.0 | 0.0 | 0.00 | 0.00 | 0.00 | 74 | 1016.2 |
| 20260506220005 | 57 | 0 | 0.0 | 0.0 | 0.00 | 0.00 | 0.00 | 74 | 1016.4 |
| 20260506215504 | 57 | 0 | 0.0 | 0.0 | 0.00 | 0.00 | 0.00 | 74 | 1016.5 |
| 20260506215005 | 57 | 0 | 0.0 | 0.0 | 0.00 | 0.00 | 0.00 | 74 | 1016.5 |
| 20260506214504 | 58 | 135 | 0.0 | 2.0 | 0.00 | 0.00 | 0.00 | 74 | 1016.2 |
| 20260506214004 | 58 | 98 | 1.0 | 3.0 | 0.00 | 0.00 | 0.00 | 74 | 1016.2 |
| 20260506213503 | 58 | 78 | 1.0 | 4.0 | 0.00 | 0.00 | 0.00 | 74 | 1016.3 |
| 20260506213004 | 58 | 67 | 1.0 | 4.0 | 0.00 | 0.00 | 0.00 | 74 | 1016.2 |
| 20260506212503 | 58 | 118 | 0.0 | 3.0 | 0.00 | 0.00 | 0.00 | 73 | 1016.4 |
| 20260506212004 | 58 | 135 | 0.0 | 3.0 | 0.00 | 0.00 | 0.00 | 73 | 1016.3 |
| 20260506211504 | 58 | 135 | 0.0 | 3.0 | 0.00 | 0.00 | 0.00 | 72 | 1016.3 |
| 20260506211004 | 59 | 114 | 1.0 | 4.0 | 0.00 | 0.00 | 0.00 | 71 | 1016.3 |
| 20260506210504 | 59 | 106 | 1.0 | 4.0 | 0.00 | 0.00 | 0.00 | 70 | 1016.5 |
| 20260506210005 | 59 | 90 | 0.0 | 2.0 | 0.00 | 0.00 | 0.00 | 69 | 1016.5 |
| 20260506205505 | 59 | 0 | 0.0 | 0.0 | 0.00 | 0.00 | 0.00 | 69 | 1016.5 |
| 20260506205004 | 59 | 150 | 0.0 | 1.0 | 0.00 | 0.00 | 0.00 | 68 | 1016.6 |
| 20260506204504 | 60 | 202 | 0.0 | 4.0 | 0.00 | 0.00 | 0.00 | 68 | 1016.4 |
| 20260506204004 | 60 | 195 | 1.0 | 4.0 | 0.00 | 0.00 | 0.00 | 68 | 1016.6 |
| 20260506203005 | 60 | 223 | 1.0 | 4.0 | 0.00 | 0.00 | 0.00 | 67 | 1016.7 |
| 20260506201504 | 61 | 181 | 0.0 | 3.0 | 0.00 | 0.00 | 0.00 | 65 | 1016.6 |
| 20260506201005 | 61 | 203 | 1.0 | 4.0 | 0.00 | 0.00 | 0.00 | 66 | 1016.6 |
| 20260506200504 | 61 | 218 | 1.0 | 4.0 | 0.00 | 0.00 | 0.00 | 66 | 1016.5 |
| 20260506200004 | 61 | 216 | 1.0 | 3.0 | 0.00 | 0.00 | 0.00 | 67 | 1016.3 |
| 20260506195504 | 61 | 216 | 1.0 | 3.0 | 0.00 | 0.00 | 0.00 | 66 | 1016.5 |
| 20260506195004 | 62 | 201 | 1.0 | 4.0 | 0.00 | 0.00 | 0.00 | 66 | 1016.4 |
| 20260506194504 | 62 | 199 | 1.0 | 4.0 | 0.00 | 0.00 | 0.00 | 66 | 1016.4 |
| 20260506193504 | 62 | 312 | 0.0 | 2.0 | 0.00 | 0.00 | 0.00 | 67 | 1016.4 |
| 20260506193004 | 62 | 310 | 0.0 | 4.0 | 0.00 | 0.00 | 0.00 | 67 | 1016.2 |
| 20260506192503 | 62 | 312 | 1.0 | 4.0 | 0.00 | 0.00 | 0.00 | 66 | 1016.2 |
| 20260506192003 | 62 | 311 | 2.0 | 4.0 | 0.00 | 0.00 | 0.00 | 66 | 1016.3 |
| 20260506191505 | 62 | 311 | 2.0 | 5.0 | 0.00 | 0.00 | 0.00 | 66 | 1016.0 |
| 20260506191003 | 63 | 314 | 1.0 | 5.0 | 0.00 | 0.00 | 0.00 | 65 | 1015.8 |
| 20260506190503 | 63 | 320 | 1.0 | 4.0 | 0.00 | 0.00 | 0.00 | 65 | 1015.7 |
| 20260506185504 | 63 | 331 | 2.0 | 5.0 | 0.00 | 0.00 | 0.00 | 65 | 1016.0 |
| 20260506185004 | 63 | 324 | 2.0 | 5.0 | 0.00 | 0.00 | 0.00 | 65 | 1015.6 |
| 20260506184004 | 63 | 303 | 3.0 | 6.0 | 0.00 | 0.00 | 0.00 | 65 | 1015.7 |
| 20260506183504 | 63 | 305 | 2.0 | 6.0 | 0.00 | 0.00 | 0.00 | 65 | 1015.7 |
| 20260506183005 | 63 | 309 | 1.0 | 4.0 | 0.00 | 0.00 | 0.00 | 65 | 1015.4 |
| 20260506182503 | 63 | 315 | 2.0 | 6.0 | 0.00 | 0.00 | 0.00 | 65 | 1015.4 |
| 20260506182003 | 64 | 311 | 2.0 | 6.0 | 0.00 | 0.00 | 0.00 | 65 | 1015.5 |
| 20260506181504 | 64 | 309 | 2.0 | 5.0 | 0.00 | 0.00 | 0.00 | 65 | 1015.4 |
| 20260506181003 | 64 | 316 | 2.0 | 5.0 | 0.00 | 0.00 | 0.00 | 65 | 1015.3 |
| 20260506180503 | 64 | 317 | 2.0 | 4.0 | 0.00 | 0.00 | 0.00 | 65 | 1015.2 |
| 20260506180005 | 64 | 320 | 2.0 | 4.0 | 0.00 | 0.00 | 0.00 | 65 | 1015.1 |
| 20260506175504 | 64 | 325 | 1.0 | 4.0 | 0.00 | 0.00 | 0.00 | 65 | 1015.2 |
| 20260506175004 | 64 | 317 | 1.0 | 4.0 | 0.00 | 0.00 | 0.00 | 65 | 1015.0 |
| 20260506174504 | 64 | 317 | 2.0 | 4.0 | 0.00 | 0.00 | 0.00 | 65 | 1015.0 |
| 20260506174004 | 64 | 332 | 2.0 | 4.0 | 0.00 | 0.00 | 0.00 | 65 | 1015.0 |
| 20260506173503 | 65 | 340 | 2.0 | 5.0 | 0.00 | 0.00 | 0.00 | 64 | 1015.0 |
| 20260506173005 | 65 | 341 | 2.0 | 5.0 | 0.00 | 0.00 | 0.00 | 64 | 1014.9 |
| 20260506172504 | 66 | 355 | 2.0 | 6.0 | 0.00 | 0.00 | 0.00 | 63 | 1015.0 |
| 20260506172004 | 66 | 18 | 2.0 | 6.0 | 0.00 | 0.00 | 0.00 | 62 | 1014.9 |
| 20260506171504 | 67 | 9 | 2.0 | 5.0 | 0.00 | 0.00 | 0.00 | 61 | 1014.9 |
| 20260506171004 | 67 | 1 | 2.0 | 5.0 | 0.00 | 0.00 | 0.00 | 60 | 1014.9 |
| 20260506170503 | 68 | 350 | 1.0 | 4.0 | 0.00 | 0.00 | 0.00 | 58 | 1014.6 |
| 20260506170004 | 69 | 331 | 1.0 | 5.0 | 0.00 | 0.00 | 0.00 | 56 | 1014.7 |
| 20260506165504 | 69 | 324 | 1.0 | 8.0 | 0.00 | 0.00 | 0.00 | 55 | 1014.5 |
| 20260506165004 | 70 | 314 | 2.0 | 8.0 | 0.00 | 0.00 | 0.00 | 54 | 1014.7 |
| 20260506164504 | 70 | 322 | 2.0 | 8.0 | 0.00 | 0.00 | 0.00 | 53 | 1014.6 |
| 20260506164003 | 71 | 329 | 2.0 | 5.0 | 0.00 | 0.00 | 0.00 | 51 | 1014.6 |
| 20260506163503 | 72 | 357 | 2.0 | 5.0 | 0.00 | 0.00 | 0.00 | 49 | 1014.5 |
| 20260506163005 | 72 | 27 | 2.0 | 4.0 | 0.00 | 0.00 | 0.00 | 48 | 1014.6 |
| 20260506162504 | 72 | 4 | 1.0 | 4.0 | 0.00 | 0.00 | 0.00 | 47 | 1014.4 |
| 20260506162003 | 73 | 349 | 2.0 | 4.0 | 0.00 | 0.00 | 0.00 | 47 | 1014.3 |
| 20260506161504 | 73 | 352 | 3.0 | 6.0 | 0.00 | 0.00 | 0.00 | 46 | 1014.4 |
| 20260506161004 | 74 | 339 | 3.0 | 6.0 | 0.00 | 0.00 | 0.00 | 46 | 1014.4 |
| 20260506160005 | 75 | 344 | 4.0 | 7.0 | 0.00 | 0.00 | 0.00 | 44 | 1014.5 |
| 20260506155503 | 76 | 355 | 4.0 | 8.0 | 0.00 | 0.00 | 0.00 | 43 | 1014.2 |
| 20260506155004 | 76 | 330 | 3.0 | 8.0 | 0.00 | 0.00 | 0.00 | 41 | 1014.4 |
| 20260506154003 | 76 | 323 | 3.0 | 6.0 | 0.00 | 0.00 | 0.00 | 42 | 1014.4 |
| 20260506153504 | 76 | 330 | 2.0 | 6.0 | 0.00 | 0.00 | 0.00 | 41 | 1014.3 |
| 20260506153004 | 76 | 319 | 2.0 | 5.0 | 0.00 | 0.00 | 0.00 | 40 | 1014.5 |
| 20260506152504 | 76 | 335 | 2.0 | 6.0 | 0.00 | 0.00 | 0.00 | 43 | 1014.5 |
| 20260506152004 | 76 | 27 | 4.0 | 8.0 | 0.00 | 0.00 | 0.00 | 43 | 1014.6 |
| 20260506151505 | 76 | 37 | 5.0 | 12.0 | 0.00 | 0.00 | 0.00 | 42 | 1014.3 |
| 20260506151004 | 76 | 35 | 6.0 | 12.0 | 0.00 | 0.00 | 0.00 | 41 | 1014.3 |
| 20260506150005 | 77 | 37 | 5.0 | 12.0 | 0.00 | 0.00 | 0.00 | 39 | 1014.2 |
| 20260506145503 | 77 | 43 | 6.0 | 11.0 | 0.00 | 0.00 | 0.00 | 37 | 1014.4 |
| 20260506145004 | 78 | 42 | 6.0 | 11.0 | 0.00 | 0.00 | 0.00 | 36 | 1014.4 |
| 20260506144504 | 78 | 45 | 6.0 | 11.0 | 0.00 | 0.00 | 0.00 | 36 | 1014.6 |
| 20260506144004 | 79 | 37 | 6.0 | 12.0 | 0.00 | 0.00 | 0.00 | 35 | 1014.4 |
| 20260506143504 | 79 | 29 | 6.0 | 13.0 | 0.00 | 0.00 | 0.00 | 32 | 1014.5 |
| 20260506143004 | 79 | 44 | 6.0 | 13.0 | 0.00 | 0.00 | 0.00 | 32 | 1014.5 |
| 20260506142004 | 80 | 44 | 6.0 | 12.0 | 0.00 | 0.00 | 0.00 | 32 | 1014.5 |
| 20260506141505 | 80 | 63 | 6.0 | 11.0 | 0.00 | 0.00 | 0.00 | 32 | 1014.3 |
| 20260506140503 | 81 | 49 | 6.0 | 12.0 | 0.00 | 0.00 | 0.00 | 29 | 1014.5 |
| 20260506140005 | 81 | 50 | 6.0 | 13.0 | 0.00 | 0.00 | 0.00 | 28 | 1014.4 |
| 20260506135503 | 81 | 66 | 6.0 | 13.0 | 0.00 | 0.00 | 0.00 | 27 | 1014.5 |
| 20260506135004 | 81 | 70 | 6.0 | 11.0 | 0.00 | 0.00 | 0.00 | 24 | 1014.5 |
| 20260506134504 | 81 | 71 | 6.0 | 13.0 | 0.00 | 0.00 | 0.00 | 23 | 1014.3 |
| 20260506134004 | 81 | 62 | 6.0 | 13.0 | 0.00 | 0.00 | 0.00 | 24 | 1014.4 |
| 20260506133503 | 82 | 67 | 6.0 | 11.0 | 0.00 | 0.00 | 0.00 | 24 | 1014.6 |
| 20260506133004 | 82 | 64 | 6.0 | 12.0 | 0.00 | 0.00 | 0.00 | 23 | 1014.6 |
| 20260506132504 | 82 | 64 | 6.0 | 12.0 | 0.00 | 0.00 | 0.00 | 22 | 1014.6 |
| 20260506131504 | 82 | 55 | 6.0 | 11.0 | 0.00 | 0.00 | 0.00 | 22 | 1014.6 |
| 20260506130504 | 82 | 32 | 6.0 | 11.0 | 0.00 | 0.00 | 0.00 | 24 | 1014.5 |
| 20260506130005 | 82 | 43 | 5.0 | 11.0 | 0.00 | 0.00 | 0.00 | 23 | 1014.6 |
| 20260506125004 | 82 | 71 | 6.0 | 10.0 | 0.00 | 0.00 | 0.00 | 23 | 1015.0 |
| 20260506124504 | 81 | 71 | 6.0 | 10.0 | 0.00 | 0.00 | 0.00 | 23 | 1014.9 |
| 20260506124004 | 82 | 46 | 6.0 | 12.0 | 0.00 | 0.00 | 0.00 | 22 | 1014.7 |
| 20260506123504 | 82 | 30 | 6.0 | 13.0 | 0.00 | 0.00 | 0.00 | 21 | 1015.0 |
| 20260506123004 | 82 | 29 | 6.0 | 13.0 | 0.00 | 0.00 | 0.00 | 23 | 1015.1 |
| 20260506122003 | 82 | 24 | 5.0 | 10.0 | 0.00 | 0.00 | 0.00 | 21 | 1015.1 |
| 20260506121504 | 83 | 35 | 5.0 | 10.0 | 0.00 | 0.00 | 0.00 | 20 | 1015.1 |
| 20260506121003 | 83 | 30 | 6.0 | 13.0 | 0.00 | 0.00 | 0.00 | 21 | 1015.3 |
| 20260506120503 | 83 | 26 | 6.0 | 13.0 | 0.00 | 0.00 | 0.00 | 21 | 1015.1 |
| 20260506120004 | 83 | 36 | 5.0 | 12.0 | 0.00 | 0.00 | 0.00 | 21 | 1015.2 |
| 20260506115004 | 83 | 46 | 5.0 | 11.0 | 0.00 | 0.00 | 0.00 | 20 | 1015.1 |
| 20260506114504 | 82 | 49 | 5.0 | 11.0 | 0.00 | 0.00 | 0.00 | 21 | 1015.1 |
| 20260506114003 | 82 | 55 | 5.0 | 12.0 | 0.00 | 0.00 | 0.00 | 21 | 1015.4 |
| 20260506113504 | 82 | 55 | 5.0 | 13.0 | 0.00 | 0.00 | 0.00 | 21 | 1015.3 |
| 20260506113005 | 82 | 52 | 5.0 | 13.0 | 0.00 | 0.00 | 0.00 | 21 | 1015.5 |
| 20260506112504 | 82 | 44 | 6.0 | 11.0 | 0.00 | 0.00 | 0.00 | 20 | 1015.2 |
| 20260506112003 | 81 | 27 | 6.0 | 10.0 | 0.00 | 0.00 | 0.00 | 22 | 1015.3 |
| 20260506111504 | 81 | 46 | 6.0 | 11.0 | 0.00 | 0.00 | 0.00 | 22 | 1015.5 |
| 20260506111004 | 81 | 44 | 5.0 | 11.0 | 0.00 | 0.00 | 0.00 | 20 | 1015.7 |
| 20260506110504 | 81 | 32 | 5.0 | 11.0 | 0.00 | 0.00 | 0.00 | 21 | 1015.5 |
| 20260506110004 | 81 | 59 | 6.0 | 11.0 | 0.00 | 0.00 | 0.00 | 21 | 1015.5 |
| 20260506105503 | 81 | 68 | 6.0 | 12.0 | 0.00 | 0.00 | 0.00 | 21 | 1015.6 |
| 20260506105004 | 81 | 51 | 6.0 | 12.0 | 0.00 | 0.00 | 0.00 | 21 | 1015.5 |
| 20260506104504 | 81 | 49 | 6.0 | 13.0 | 0.00 | 0.00 | 0.00 | 21 | 1015.3 |
| 20260506104003 | 81 | 37 | 5.0 | 13.0 | 0.00 | 0.00 | 0.00 | 22 | 1015.7 |
| 20260506103504 | 81 | 33 | 5.0 | 13.0 | 0.00 | 0.00 | 0.00 | 22 | 1015.5 |
| 20260506103005 | 81 | 42 | 5.0 | 12.0 | 0.00 | 0.00 | 0.00 | 22 | 1015.6 |
| 20260506102504 | 81 | 22 | 5.0 | 12.0 | 0.00 | 0.00 | 0.00 | 23 | 1015.6 |
| 20260506102003 | 81 | 5 | 6.0 | 12.0 | 0.00 | 0.00 | 0.00 | 25 | 1015.9 |
| 20260506101504 | 81 | 17 | 5.0 | 13.0 | 0.00 | 0.00 | 0.00 | 26 | 1015.7 |
| 20260506100503 | 81 | 49 | 5.0 | 13.0 | 0.00 | 0.00 | 0.00 | 28 | 1015.7 |
| 20260506100005 | 81 | 46 | 5.0 | 11.0 | 0.00 | 0.00 | 0.00 | 29 | 1015.6 |
| 20260506095503 | 81 | 23 | 5.0 | 11.0 | 0.00 | 0.00 | 0.00 | 29 | 1015.8 |
| 20260506095004 | 81 | 14 | 6.0 | 12.0 | 0.00 | 0.00 | 0.00 | 29 | 1015.7 |
| 20260506094004 | 81 | 24 | 5.0 | 9.0 | 0.00 | 0.00 | 0.00 | 28 | 1016.0 |
| 20260506093004 | 82 | 30 | 3.0 | 8.0 | 0.00 | 0.00 | 0.00 | 28 | 1016.1 |